Flag for Laos Weather past 2 weeks in Vientiane, Laos

Now
93 °F

Scattered clouds.


Feels Like: 99 °F
Forecast: 73 / 96 °F
Wind: 5 mph from South

Location: Vientiane Airport

Current Time: Mar 30, 2015 at 4:57:17 PM

Latest Report: Mar 30, 2015 at 4:30 PM


Visibility: N/A

Pressure: 29.74 "Hg

Humidity: 47%

Dew point: 70 °F

Location of VientianeLocation

Historic Weather in Vientiane — Graph

°F

Vientiane temperature yesterday

Maximum temperature yesterday: 93 °F (at 5:00 PM)
Minimum temperature yesterday: 75 °F (at 6:00 AM)
Average temperature yesterday: 86 °F

Past Weeks' High & Low Weather Summary

 TemperatureHumidityPressure
High99 °F (Mar 19, 4:00 PM)100% (Mar 23, 7:00 AM)30.12 "Hg (Mar 23, 7:00 AM)
Low72 °F (Mar 23, 7:00 AM)43% (Mar 25, 12:30 PM)29.65 "Hg (Mar 18, 3:30 PM)
Average84 °F66%29.88 "Hg
* Reported Mar 15 3:00 PM — Mar 30 3:30 PM, Vientiane, Weather by CustomWeather, © 2015

Note: Actual official high and low records may vary slightly from our data, if they occured in-between our weather recording intervals... More about our weather records

Advertising

Vientiane weather history for previous 24 hours

 ConditionsComfort  
Time TempWeatherWind HumidityBarometerVisibility
3:30 PM
Mon, Mar 30
95 °FScattered clouds.2 mph44%29.74 "HgN/A
3:00 PM93 °FScattered clouds.2 mph47%29.77 "HgN/A
11:30 AM86 °FClear.2 mph52%29.92 "HgN/A
11:00 AM84 °FClear.2 mph55%29.95 "HgN/A
10:30 AM82 °FScattered clouds.2 mph58%29.95 "HgN/A
10:00 AM81 °FScattered clouds.2 mph62%29.95 "HgN/A
9:30 AM79 °FClear.2 mph65%29.95 "Hg5 mi
9:00 AM77 °FClear.2 mph69%29.95 "Hg5 mi
8:30 AM77 °FScattered clouds.7 mph69%29.95 "Hg4 mi
8:00 AM75 °FScattered clouds.7 mph74%29.95 "Hg4 mi
7:30 AM72 °FFog.7 mph78%29.89 "Hg2 mi
7:00 AM72 °FFog.7 mph78%29.89 "Hg2 mi
6:30 AM73 °FFog.7 mph74%29.86 "Hg2 mi
6:00 AM73 °FFog.7 mph74%29.86 "Hg2 mi
12:00 AM81 °FFog.2 mph74%29.83 "Hg2 mi
11:30 PM
Sun, Mar 29
82 °FFog.2 mph66%29.83 "Hg2 mi
11:00 PM82 °FFog.2 mph66%29.83 "Hg2 mi
10:30 PM84 °FFog.2 mph62%29.83 "Hg2 mi
10:00 PM84 °FFog.2 mph62%29.83 "Hg2 mi
9:30 PM86 °FFog.2 mph59%29.83 "Hg2 mi
9:00 PM86 °FFog.2 mph59%29.83 "Hg2 mi
8:30 PM84 °FFog.2 mph58%29.80 "Hg3 mi
8:00 PM86 °FFog.2 mph59%29.80 "Hg3 mi
7:00 PM88 °FFog.2 mph55%29.77 "Hg3 mi
6:30 PM91 °FPassing clouds.2 mph49%29.77 "HgN/A
6:00 PM91 °FScattered clouds.2 mph49%29.77 "HgN/A
5:30 PM93 °FScattered clouds.2 mph47%29.74 "HgN/A
5:00 PM93 °FScattered clouds.2 mph47%29.74 "HgN/A
4:30 PM91 °FScattered clouds.5 mph49%29.77 "HgN/A
4:00 PM91 °FScattered clouds.5 mph49%29.77 "HgN/A
Weather by CustomWeather, © 2015

See weather overviewHow to use our weather pages